PROBA-1 1 26958U 01049B 25347.29259222 .00004621 00000+0 30654-3 0 9991 2 26958 97.9589 344.4756 0056940 32.4281 328.0423 15.06455397315620 CUTE-1 (CO-55) 1 27844U 03031E 25347.29256032 .00000603 00000+0 28053-3 0 9991 2 27844 98.6766 353.1884 0009762 11.8884 348.2523 14.24180071165215 CUBESAT XI-IV (CO-57) 1 27848U 03031J 25346.97818520 .00000480 00000+0 23011-3 0 9997 2 27848 98.6792 352.7398 0009978 30.1158 330.0593 14.23487467164886 APRIZESAT 4 1 35684U 09041D 25347.19138594 .00001631 00000+0 20223-3 0 9993 2 35684 98.1643 53.6665 0043076 203.1713 156.7558 14.83494745883787 APRIZESAT 3 1 35686U 09041F 25347.27493444 .00003598 00000+0 31933-3 0 9996 2 35686 98.1786 127.0053 0061684 321.8774 37.8089 14.95424001888586 PROBA-2 1 36037U 09059B 25347.05643946 .00000544 00000+0 13758-3 0 9999 2 36037 98.2373 168.0330 0014009 132.2970 227.9417 14.54711904854467 APRIZESAT 5 1 37792U 11044E 25347.25834788 .00002201 00000+0 28822-3 0 9993 2 37792 98.2355 270.2167 0051399 240.7582 118.8484 14.80576836771278 APRIZESAT 6 1 37793U 11044F 25347.29978884 .00001782 00000+0 25980-3 0 9999 2 37793 98.2460 248.9369 0042694 322.1348 153.3495 14.76538391769716 PROBA-V 1 39159U 13021A 25347.21302221 .00000151 00000+0 84178-4 0 9996 2 39159 98.3391 330.2189 0003530 332.4037 27.6955 14.23547691654653 APRIZESAT 7 1 39416U 13066A 25347.29258151 .00003056 00000+0 31135-3 0 9992 2 39416 97.7469 298.5469 0037852 106.7511 253.7866 14.90905963653520 APRIZESAT 8 1 39425U 13066K 25347.26855362 .00002356 00000+0 26337-3 0 9996 2 39425 97.8001 292.6578 0046424 175.7657 184.3961 14.87116117652032 BUGSAT-1 (TITA) 1 40014U 14033E 25347.25057488 .00009186 00000+0 51391-3 0 9995 2 40014 98.0559 64.1768 0030667 94.9362 265.5370 15.13302359627694 SAUDISAT 4 1 40016U 14033G 25347.31953214 .00001362 00000+0 18754-3 0 9990 2 40016 97.7298 135.2407 0044222 319.7685 40.0256 14.79171803618597 APRIZESAT 9 1 40018U 14033J 25347.28301408 .00001255 00000+0 19223-3 0 9993 2 40018 97.8791 120.3867 0067859 78.3159 282.5654 14.73888743616177 APRIZESAT 10 1 40019U 14033K 25347.32829816 .00001408 00000+0 22860-3 0 9998 2 40019 97.9409 113.7730 0079889 146.5886 214.0398 14.70598659614939 TECHDEMOSAT-1 (TDS-1) 1 40076U 14037H 25346.87757491 .00015021 00000+0 94069-3 0 9999 2 40076 98.3665 316.3428 0006967 162.6032 197.5435 15.09474240620087 TECHNOSAT 1 42829U 17042E 25347.32747182 .00006741 00000+0 49778-3 0 9999 2 42829 97.4046 147.5076 0018398 11.6688 348.4961 15.03423250458766 FLYING LAPTOP 1 42831U 17042G 25347.33575080 .00005663 00000+0 45974-3 0 9995 2 42831 97.4235 145.9285 0014995 47.2672 312.9811 14.99917856458584 HAWK-A 1 43765U 18099H 25347.11439484 .00012232 00000+0 53528-3 0 9992 2 43765 97.4215 36.8585 0036245 217.5136 142.3570 15.21592023384776 HAWK-B 1 43794U 18099AN 25347.12508356 .00010280 00000+0 47276-3 0 9994 2 43794 97.4264 36.6413 0032729 234.0419 125.7779 15.20052279384747 HAWK-C 1 43799U 18099AT 25347.15198279 .00014097 00000+0 56078-3 0 9991 2 43799 97.4197 36.9661 0042795 221.1146 138.6865 15.24523039385531 SALSAT 1 46495U 20068K 25347.25281358 .00015093 00000+0 58284-3 0 9996 2 46495 97.8788 334.5529 0008943 227.1555 132.8932 15.26340068286963 HAWK-2C 1 47502U 21006CT 25347.09400263 .00010909 00000+0 35858-3 0 9992 2 47502 97.2567 30.1900 0008373 138.6504 221.5373 15.31681452270982 HAWK-2A 1 47505U 21006CW 25347.09710151 .00018138 00000+0 59412-3 0 9999 2 47505 97.2607 30.7622 0007825 141.8791 218.3006 15.31680601270984 HAWK-2B 1 47508U 21006CZ 25347.09434648 .00011187 00000+0 36763-3 0 9997 2 47508 97.2482 29.4060 0008604 139.6113 220.5769 15.31680359270989 HAWK-3B 1 48931U 21059BE 25347.30224927 .00041699 00000+0 61763-3 0 9996 2 48931 97.6696 163.5171 0005321 298.1913 61.8803 15.55145347248839 HAWK-3C 1 48948U 21059BX 25347.30201557 .00041889 00000+0 62030-3 0 9997 2 48948 97.6864 168.8270 0005874 299.1835 60.8830 15.55147424248836 HAWK-3A 1 48957U 21059CG 25347.30184956 .00042344 00000+0 62706-3 0 9997 2 48957 97.6789 166.1991 0005433 297.7599 62.3103 15.55146893248834 HAWK-5C 1 52754U 22057Y 25346.96357568 .00022509 00000+0 50112-3 0 9997 2 52754 97.6368 131.0207 0006027 33.3965 326.7661 15.43622900197541 HAWK-5B 1 52756U 22057AA 25347.28752396 .00026401 00000+0 58676-3 0 9991 2 52756 97.6351 129.7180 0006137 27.4933 332.6638 15.43640577197595 HAWK-5A 1 52757U 22057AB 25347.28725354 .00027598 00000+0 61311-3 0 9994 2 52757 97.6358 130.5411 0006378 29.7972 330.3637 15.43641838197590 HAWK-6B 1 55324U 23011A 25347.08343694 .00008377 00000+0 38196-3 0 9998 2 55324 40.5156 355.7255 0002887 202.0652 158.0033 15.20655517159480 HAWK-6C 1 55326U 23011C 25347.01715237 .00008747 00000+0 39841-3 0 9998 2 55326 40.4842 353.2104 0002382 190.8135 169.2623 15.20651759159482 HAWK-6A 1 55327U 23011D 25347.08284211 .00008475 00000+0 38634-3 0 9996 2 55327 40.5002 354.3177 0002172 198.9839 161.0889 15.20653105159493 HAWK-7A 1 56191U 23054P 25347.17795134 .00010737 00000+0 37780-3 0 9999 2 56191 97.2928 233.9404 0007742 4.8317 355.2997 15.29481966148632 HAWK-7B 1 56193U 23054R 25347.24326408 .00004617 00000+0 16408-3 0 9997 2 56193 97.2947 232.2013 0008019 16.5807 343.5694 15.29472581148643 HAWK-7C 1 56200U 23054Y 25347.24302913 .00012600 00000+0 44274-3 0 9994 2 56200 97.2927 233.0235 0007523 8.0546 352.0814 15.29488752148646